Location: Camp Crooked Creek
(37.9149°N, 85.6607°W)
Time: 14:49:43
(UTC-04:00)

Lacrosse 4 - Visible Passes

Search period start: 04 September 2015 00:00
Search period end: 14 September 2015 00:00
Orbit: 673 x 680 km, 68.0° (Epoch: 25 February)

Date Brightness Start Highest point End Pass type
(mag) Time Alt. Az. Time Alt. Az. Time Alt. Az.
05 Sep 3.9 06:35:29 10° SSE 06:39:28 28° ESE 06:43:34 10° NE visible
07 Sep 3.8 06:05:34 10° SSE 06:09:30 27° ESE 06:13:32 10° NE visible
08 Sep 1.8 06:39:55 10° SSW 06:44:41 85° ESE 06:49:29 10° NNE visible
09 Sep 3.7 05:35:39 10° SSE 05:39:32 26° ESE 05:43:32 10° NE visible
10 Sep 1.8 06:09:56 10° SSW 06:14:42 83° ESE 06:19:31 10° NNE visible
11 Sep 3.7 05:06:55 16° SSE 05:09:33 25° ESE 05:13:30 10° NE visible
11 Sep 2.6 06:45:53 10° WSW 06:50:13 33° NW 06:54:32 10° N visible
12 Sep 1.8 05:42:20 30° SSW 05:44:43 80° ESE 05:49:31 10° NNE visible
13 Sep 3.6 04:39:17 24° ESE 04:39:35 24° ESE 04:43:29 10° NE visible
13 Sep 2.5 06:17:37 20° WSW 06:20:14 34° NW 06:24:34 10° N visible
